This demonstration page uses our WeatherBlox Daily Observations layout. Learn more.

Left ArrowRight Arrow

34.16533, -84.80231

Hourly Observations for April 4, 2020

Temp ( °F °C ) Dew Point ( °F °C ) Humidity (%) Winds ( mph kmh ) Pressure ( in mb ) Visibility ( mi km ) Precip ( " mm )
12:53 am 00:53 Clear 50 10 43 6.1 77 77 Calm 29.96 1015 10 16 0.00 0.00
1:53 am 01:53 Clear 50 10 43 6.1 77 77 Calm 29.94 1014 10 16 0.00 0.00
2:53 am 02:53 Mostly Cloudy 52 11.1 45 7.2 77 77 Calm 29.94 1014 10 16 0.00 0.00
3:53 am 03:53 Cloudy 52 11.1 46 7.8 80 80 Calm 29.92 1013 10 16 0.00 0.00
4:53 am 04:53 Mostly Clear 53 11.7 46 7.8 77 77 Calm 29.94 1014 10 16 0.00 0.00
5:53 am 05:53 Cloudy 53 11.7 46 7.8 77 77 Calm 29.94 1014 10 16 0.00 0.00
6:53 am 06:53 Cloudy 54 12.2 47 8.3 77 77 Calm 29.96 1015 10 16 0.00 0.00
7:53 am 07:53 Cloudy 54 12.2 48 8.9 80 80 Calm 29.98 1015 10 16 0.00 0.00
8:53 am 08:53 Cloudy 56 13.3 49 9.4 77 77 Calm 30.01 1016 10 16 0.00 0.00
9:53 am 09:53 Cloudy 60 15.6 48 8.9 65 65 Calm 30.01 1016 10 16 0.00 0.00
10:53 am 10:53 Mostly Cloudy 63 17.2 48 8.9 58 58 Calm 30.01 1016 10 16 0.00 0.00
11:53 am 11:53 Mostly Sunny 69 20.6 48 8.9 47 47 Calm 29.99 1016 10 16 0.00 0.00
12:53 pm 12:53 Sunny 73 22.8 43 6.1 34 34 SSE 6 9 29.98 1015 10 16 0.00 0.00
1:53 pm 13:53 Sunny 76 24.4 42 5.6 30 30 Calm 29.96 1015 10 16 0.00 0.00
2:53 pm 14:53 Sunny 76 24.4 42 5.6 30 30 Calm 29.93 1014 10 16 0.00 0.00
3:53 pm 15:53 Sunny 77 25 42 5.6 29 29 S 6 9 29.90 1013 10 16 0.00 0.00
4:53 pm 16:53 Sunny 79 26.1 43 6.1 28 28 NNW 8 13 29.90 1013 10 16 0.00 0.00
5:53 pm 17:53 Sunny 79 26.1 42 5.6 27 27 Calm 29.90 1012 10 16 0.00 0.00
6:53 pm 18:53 Sunny 76 24.4 41 5 29 29 Calm 29.90 1013 10 16 0.00 0.00
7:53 pm 19:53 Sunny 68 20 48 8.9 49 49 Calm 29.91 1013 10 16 0.00 0.00
8:53 pm 20:53 Clear 61 16.1 48 8.9 63 63 Calm 29.93 1014 10 16 0.00 0.00
9:53 pm 21:53 Clear 59 15 47 8.3 64 64 Calm 29.95 1014 10 16 0.00 0.00
10:53 pm 22:53 Clear 56 13.3 47 8.3 72 72 Calm 29.95 1014 10 16 0.00 0.00
11:53 pm 23:53 Clear 56 13.3 46 7.8 70 70 Calm 29.95 1014 10 16 0.00 0.00

Powered by AerisWeather